sat.trackr.live / text

‹ back to catalog

HAWK-6A

NORAD 55327 · 2023-011D

PAYLOAD ACTIVE UNKNOWN

§ Identity

Operator
Country
US
Launch date
2023-01-24
Launch site
WLPIS
Launch vehicle
Mass (kg)
RCS (m²)

Purposes: tech_demo

External: N2YO · Heavens-Above · Gunter

§ Orbital elements

Epoch: 2026-05-25T05:29:59.093088Z

Period
94.57 min
Inclination
40.4985°
Eccentricity
0.0004302
Mean motion
15.22695743 rev/d
Perigee alt
494.8 km
Apogee alt
500.7 km
Semi-major
6,875.9 km
B*
1.9269e-4
RAAN
124.4191°
Arg perigee
235.7086°
Mean anomaly
124.3316°
Rev number
18,435

§ Raw data

HAWK-6A1 55327U 23011D   26145.22915617  .00004393  00000+0  19269-3 0  99982 55327  40.4985 124.4191 0004302 235.7086 124.3316 15.22695743184351

JSON: /api/v1/satellites/55327 · /tle

For live sub-satellite position, see the globe view (requires WebGL).

§ Visibility from observer

Set your observer location to see the next 7 days of passes ≥ 10°. The values pass through the URL so the page stays shareable.

No JS? Fill the form by hand. The geolocation button needs JavaScript.